#timestamp,LO_Frequency,Hit,StdDev 
1515204015.1,286046998.5,N
1515204016.0,286046998.5,N
1515204035.8,286047000.7,N
1515204055.6,286046999.7,N
1515204075.5,286047001.9,N
1515204095.3,286047001.5,N
1515204115.1,286047002.8,N
1515204135.9,286046999.1,N
1515204155.7,286046996.7,N
1515204175.5,286046996.1,N
1515204195.3,286046996.3,N
1515204215.2,286046993.6,Y
1515204235.0,286046994.2,P
1515204235.9,286046994.2,N
1515204255.8,286046993.3,N
1515204275.6,286046994.7,N
1515204295.4,286046993.4,N
1515204315.2,286046995.7,N
1515204335.1,286046995.5,N
1515204336.0,286046995.5,N
1515204355.8,286046996.3,N
1515204375.6,286046996.6,N
1515204395.5,286046995.0,N
1515204415.3,286046993.8,Y
1515204435.1,286046998.8,P
1515204455.9,286046999.1,N
1515204475.7,286047000.7,N
1515204495.5,286046998.5,N
1515204515.4,286046998.5,N
1515204535.2,286046997.7,N
1515204555.0,286046995.8,N
1515204555.9,286046995.8,N
1515204575.8,286046993.3,Y
1515204595.6,286046995.1,P
1515204615.4,286046997.2,N
1515204635.3,286047000.3,N
1515204655.1,286046998.5,N
1515204656.0,286046998.5,N
1515204675.8,286047001.9,N
1515204695.7,286047000.2,N
1515204715.5,286046996.8,N
1515204735.3,286046996.6,N
1515204755.2,286046998.4,N
1515204775.9,286046999.5,N
1515204795.7,286046998.0,N
1515204815.5,286046997.5,N
1515204835.4,286046999.6,N
1515204855.2,286046995.1,N
1515204875.0,286046995.0,N
1515204875.9,286046995.0,N
1515204895.8,286047002.6,N
1515204915.6,286047000.1,N
1515204935.4,286047004.9,N
1515204955.3,286047006.8,N
1515204975.1,286047004.7,N
1515204976.0,286047004.7,N
1515204995.8,286047005.3,N
1515205015.7,286047004.9,N
1515205035.5,286047008.8,N
1515205055.3,286047009.1,N
1515205075.2,286047007.1,N
1515205095.9,286047003.1,N
1515205115.7,286047003.5,N
1515205135.6,286047003.8,N
1515205155.4,286047002.9,N
1515205175.2,286047005.1,N
1515205195.0,286047005.2,N
1515205195.9,286047005.2,N
1515205215.8,286047003.4,N
1515205235.6,286047003.3,N
1515205255.4,286047005.5,N
1515205275.3,286047003.4,N
1515205295.1,286047002.6,N
1515205315.8,286047004.4,N
1515205335.7,286047004.4,N
1515205355.5,286047003.7,N
1515205375.3,286047003.7,N
1515205395.2,286047004.8,N
1515205415.9,286047007.2,N
1515205435.7,286047007.5,N
1515205455.6,286047005.6,N
1515205475.4,286047003.1,N
1515205495.2,286047003.6,N
1515205515.0,286047002.5,N
1515205516.0,286047002.5,N
1515205535.8,286047000.5,N
1515205555.6,286047001.9,N
1515205575.4,286047000.8,N
1515205595.3,286047001.2,N
1515205615.1,286046998.5,N
1515205635.8,286046997.3,N
1515205655.7,286046998.1,N
1515205675.5,286046999.3,N
1515205695.3,286046997.3,N
1515205715.2,286046999.6,N
1515205735.9,286046998.1,N
1515205755.7,286046999.9,N
1515205775.6,286047001.9,N
1515205795.4,286047003.6,N
1515205815.2,286047000.2,N
1515205835.1,286047002.2,N
1515205836.0,286047002.2,N
1515205855.8,286047004.2,N
1515205875.6,286047000.3,N
1515205895.5,286047002.5,N
1515205915.3,286047000.3,N
1515205935.1,286047004.8,N
1515205955.9,286047010.8,Y
1515205975.7,286047010.3,P
1515205995.5,286047009.3,N
1515206015.3,286047020.2,P
1515206035.2,286047022.4,Y
1515206055.0,286047014.0,P
1515206055.9,286047014.0,P
1515206075.8,286047015.7,P
1515206095.6,286047018.0,Y
1515206115.4,286047007.7,P
1515206135.3,286047011.2,P
1515206155.1,286047010.8,P
1515206156.0,286047010.8,Y
1515206175.8,286046998.9,P
1515206195.7,286047000.6,N
1515206215.5,286047002.5,N
1515206235.3,286047003.0,N
1515206255.2,286047008.9,N
1515206275.9,286047009.2,N
1515206295.7,286047007.0,N
1515206315.6,286047001.4,N
1515206335.4,286047002.4,N
1515206355.2,286047000.3,N
1515206375.0,286046997.2,N
1515206375.9,286046997.2,N
1515206395.8,286046997.3,N
1515206415.6,286046994.0,N
1515206435.4,286046990.2,N
1515206455.3,286046989.4,N
1515206475.1,286046985.6,N
1515206495.8,286046985.4,N
1515206515.7,286046983.7,N
1515206535.5,286046989.9,N
1515206555.3,286046989.2,N
1515206575.2,286046985.6,N
1515206595.9,286046987.6,N
1515206615.7,286046985.0,N
1515206635.5,286046983.1,N
1515206655.4,286046982.6,N
1515206675.2,286046985.4,N
1515206695.0,286046990.6,N
1515206695.9,286046990.6,N
1515206715.8,286046989.2,N
1515206735.6,286046985.6,N
1515206755.4,286046982.2,N
1515206775.3,286046984.2,N
1515206795.1,286046985.6,N
1515206815.8,286046991.4,N
1515206835.7,286046987.4,N
1515206855.5,286046992.8,N
1515206875.3,286046996.1,N
1515206895.2,286046999.0,N
1515206915.9,286046996.5,N
1515206935.7,286046996.2,N
1515206955.6,286046991.7,N
1515206975.4,286046992.5,N
1515206995.2,286046992.5,N
1515207015.0,286046993.8,N
1515207015.9,286046993.8,N
1515207035.8,286046994.6,N
1515207055.6,286046990.4,N
1515207075.4,286046996.4,N
1515207095.3,286046995.3,N
1515207115.1,286046996.8,N
1515207135.8,286046996.6,N
1515207155.7,286046994.8,N
1515207175.5,286046995.2,N
1515207195.3,286046994.4,N
1515207215.2,286046994.2,N
1515207235.9,286046993.8,N
1515207255.7,286046995.6,N
1515207275.6,286046992.0,N
1515207295.4,286046990.5,N
1515207315.2,286046988.9,N
1515207335.1,286046985.7,Y
1515207336.0,286046985.7,P
1515207355.8,286046992.2,N
1515207375.6,286046992.9,N
1515207395.5,286046993.9,N
1515207415.3,286046992.0,N
1515207435.1,286046992.4,N
1515207455.8,286046995.8,N
1515207475.7,286046995.7,N
1515207495.5,286046994.0,N
1515207515.3,286046997.8,N
1515207535.2,286046995.8,N
1515207555.9,286046995.8,N
1515207575.7,286046994.5,N
1515207595.6,286046991.5,Y
